Location: Newark
(15.4608°S, 41.1635°W)
Time: 22:39:13
(UTC+00:00)

Vanguard 3 - Pass Details

Date: 31 July 2021
Orbit: 510 x 3260 km, 33.3° (Epoch: 20 September)

Event Time Altitude Azimuth Distance (km) Brightness Sun altitude
Rises 14:33:36 0° 230° (SW) 2,770 9.7 56.2°
Reaches altitude 10° 14:35:34 10° 224° (SW) 2,000 9.0 56.2°
Maximum altitude 14:39:55 50° 147° (SSE) 1,015 8.0 56.3°
Drops below altitude 10° 14:46:49 10° 73° (ENE) 3,150 10.4 56.4°
Sets 14:50:40 0° 68° (ENE) 4,577 11.2 56.4°
